• In Deutschland
  • Länderverzeichnis
  • Für 7 Tage
  • Wassertemperatur
  • Satellitenkarten
  • Wetterkarte
  • Widgets
  • user-avatar
    Anmelden

    Stündliche Wetter Giengen an der Brenz

    Heute, 17 Dezember, Sonntag

    Zeit Temperatur Niederschläge Wind Luftdruck Luftfeuchtigkeit
    00:00 -1°C° 0,1 mm 3 m/S 719 mmHg 93%
    01:00 -1°C° 0 mm 3 m/S 719 mmHg 93%
    02:00 -1°C° 0 mm 3 m/S 719 mmHg 92%
    03:00 -1°C° 0 mm 3 m/S 719 mmHg 92%
    04:00 -1°C° 0 mm 3 m/S 719 mmHg 92%
    05:00 -1°C° 0,1 mm 3 m/S 720 mmHg 92%
    06:00 -1°C° 0,1 mm 3 m/S 720 mmHg 92%
    07:00 -2°C° 0 mm 4 m/S 721 mmHg 93%
    08:00 -2°C° 0,2 mm 4 m/S 721 mmHg 91%
    09:00 -2°C° 0,2 mm 4 m/S 722 mmHg 89%
    10:00 -2°C° 0,2 mm 5 m/S 722 mmHg 87%
    11:00 -2°C° 0,1 mm 5 m/S 722 mmHg 85%
    12:00 -2°C° 0,1 mm 5 m/S 723 mmHg 83%
    13:00 -2°C° 0 mm 5 m/S 723 mmHg 81%
    14:00 -2°C° 0,1 mm 4 m/S 723 mmHg 83%
    15:00 -2°C° 0,1 mm 4 m/S 723 mmHg 84%
    16:00 -2°C° 0,1 mm 4 m/S 724 mmHg 85%
    17:00 -2°C° 0 mm 3 m/S 724 mmHg 86%
    18:00 -2°C° 0 mm 3 m/S 724 mmHg 87%
    19:00 -2°C° 0 mm 3 m/S 725 mmHg 88%
    20:00 -2°C° 0 mm 3 m/S 725 mmHg 89%
    21:00 -4°C° 0 mm 3 m/S 725 mmHg 89%
    22:00 -4°C° 0 mm 3 m/S 726 mmHg 89%
    23:00 -4°C° 0 mm 3 m/S 725 mmHg 89%

    Morgen, 18 Dezember, Montag

    Zeit Temperatur Niederschläge Wind Luftdruck Luftfeuchtigkeit
    00:00 -5°C° 0 mm 3 m/S 725 mmHg 89%
    01:00 -5°C° 0 mm 3 m/S 725 mmHg 88%
    02:00 -5°C° 0 mm 3 m/S 725 mmHg 87%
    03:00 -5°C° 0 mm 3 m/S 724 mmHg 85%
    04:00 -4°C° 0 mm 3 m/S 724 mmHg 83%
    05:00 -4°C° 0,1 mm 3 m/S 723 mmHg 83%
    06:00 -4°C° 0,1 mm 3 m/S 723 mmHg 83%
    07:00 -4°C° 0,1 mm 3 m/S 722 mmHg 83%
    08:00 -4°C° 0,2 mm 3 m/S 722 mmHg 84%
    09:00 -2°C° 0,2 mm 3 m/S 722 mmHg 84%
    10:00 -2°C° 0,2 mm 3 m/S 722 mmHg 84%
    11:00 -2°C° 0,1 mm 3 m/S 722 mmHg 84%
    12:00 -1°C° 0,1 mm 3 m/S 722 mmHg 84%
    13:00 -1°C° 0,1 mm 2 m/S 721 mmHg 84%
    14:00 -1°C° 0 mm 2 m/S 722 mmHg 86%
    15:00 +1°C° 0 mm 1 m/S 722 mmHg 87%
    16:00 +1°C° 0 mm 1 m/S 722 mmHg 89%
    17:00 0°C° 0 mm 1 m/S 723 mmHg 90%
    18:00 -1°C° 0 mm 0 m/S 723 mmHg 91%
    19:00 -2°C° 0 mm 0 m/S 724 mmHg 92%
    20:00 -2°C° 0 mm 0 m/S 724 mmHg 92%
    21:00 -2°C° 0 mm 0 m/S 725 mmHg 92%
    22:00 -1°C° 0 mm 0 m/S 725 mmHg 91%
    23:00 -1°C° 0 mm 0 m/S 725 mmHg 91%

    übermorgen, 19 Dezember, Dienstag

    Zeit Temperatur Niederschläge Wind Luftdruck Luftfeuchtigkeit
    00:00 -1°C° 0 mm 0 m/S 726 mmHg 91%
    01:00 -1°C° 0 mm 0 m/S 726 mmHg 91%
    02:00 -1°C° 0 mm 0 m/S 726 mmHg 91%
    03:00 -1°C° 0 mm 0 m/S 727 mmHg 91%
    04:00 -1°C° 0 mm 0 m/S 727 mmHg 92%
    05:00 -1°C° 0 mm 0 m/S 727 mmHg 92%
    06:00 -1°C° 0 mm 0 m/S 727 mmHg 93%
    07:00 0°C° 0 mm 1 m/S 728 mmHg 94%
    08:00 +1°C° 0,1 mm 1 m/S 728 mmHg 93%
    09:00 +1°C° 0,1 mm 1 m/S 729 mmHg 93%
    10:00 +1°C° 0,1 mm 1 m/S 729 mmHg 92%
    11:00 +2°C° 0,1 mm 1 m/S 729 mmHg 92%
    12:00 +2°C° 0,1 mm 1 m/S 729 mmHg 93%
    13:00 +3°C° 0,1 mm 1 m/S 729 mmHg 93%
    14:00 +2°C° 0 mm 1 m/S 729 mmHg 94%
    15:00 +1°C° 0 mm 2 m/S 729 mmHg 95%
    16:00 +1°C° 0 mm 2 m/S 729 mmHg 96%
    17:00 +1°C° 0 mm 2 m/S 729 mmHg 96%
    18:00 -1°C° 0 mm 2 m/S 730 mmHg 96%
    19:00 -1°C° 0 mm 2 m/S 730 mmHg 96%
    20:00 -1°C° 0,1 mm 2 m/S 730 mmHg 96%
    21:00 -1°C° 0,1 mm 2 m/S 730 mmHg 96%
    22:00 -1°C° 0,1 mm 2 m/S 730 mmHg 95%
    23:00 -1°C° 0,5 mm 2 m/S 730 mmHg 95%

    20 Dezember, Mittwoch

    Zeit Temperatur Niederschläge Wind Luftdruck Luftfeuchtigkeit
    00:00 -1°C° 0,5 mm 2 m/S 730 mmHg 95%
    01:00 -1°C° 0,5 mm 2 m/S 730 mmHg 96%
    02:00 -1°C° 0,7 mm 3 m/S 730 mmHg 96%
    03:00 -1°C° 0,7 mm 3 m/S 729 mmHg 95%
    04:00 -1°C° 0,7 mm 3 m/S 729 mmHg 95%
    05:00 -1°C° 0,7 mm 3 m/S 729 mmHg 95%
    06:00 -1°C° 0,7 mm 3 m/S 729 mmHg 96%
    07:00 -1°C° 0,7 mm 3 m/S 729 mmHg 96%
    08:00 0°C° 0,8 mm 3 m/S 729 mmHg 96%
    09:00 0°C° 0,8 mm 3 m/S 729 mmHg 96%
    10:00 0°C° 0,8 mm 3 m/S 729 mmHg 96%
    11:00 0°C° 0,7 mm 3 m/S 729 mmHg 97%
    12:00 0°C° 0,7 mm 3 m/S 729 mmHg 97%
    13:00 0°C° 0,7 mm 3 m/S 728 mmHg 98%
    14:00 0°C° 0,7 mm 3 m/S 728 mmHg 98%
    15:00 0°C° 0,7 mm 3 m/S 728 mmHg 98%
    16:00 0°C° 0,7 mm 3 m/S 728 mmHg 97%
    17:00 0°C° 0,6 mm 3 m/S 729 mmHg 98%
    18:00 0°C° 0,6 mm 3 m/S 729 mmHg 98%
    19:00 0°C° 0,6 mm 3 m/S 729 mmHg 98%
    20:00 0°C° 0,6 mm 3 m/S 729 mmHg 98%
    21:00 0°C° 0,6 mm 3 m/S 729 mmHg 99%
    22:00 0°C° 0,6 mm 3 m/S 729 mmHg 99%
    23:00 0°C° 0,5 mm 3 m/S 729 mmHg 99%

    21 Dezember, Donnerstag

    Zeit Temperatur Niederschläge Wind Luftdruck Luftfeuchtigkeit
    00:00 +1°C° 0,5 mm 3 m/S 729 mmHg 99%
    01:00 +1°C° 0,5 mm 3 m/S 729 mmHg 99%
    02:00 +1°C° 0,3 mm 3 m/S 729 mmHg 99%
    03:00 +1°C° 0,3 mm 3 m/S 729 mmHg 99%
    04:00 +1°C° 0,3 mm 3 m/S 729 mmHg 99%
    05:00 0°C° 0,2 mm 4 m/S 729 mmHg 99%
    06:00 0°C° 0,2 mm 4 m/S 729 mmHg 99%
    07:00 0°C° 0,2 mm 4 m/S 729 mmHg 99%
    08:00 0°C° 0,4 mm 4 m/S 730 mmHg 99%
    09:00 +1°C° 0,4 mm 4 m/S 730 mmHg 99%
    10:00 +1°C° 0,4 mm 4 m/S 730 mmHg 99%
    11:00 +1°C° 0,9 mm 4 m/S 730 mmHg 99%
    12:00 +1°C° 0,9 mm 4 m/S 729 mmHg 99%
    13:00 +1°C° 0,9 mm 4 m/S 729 mmHg 99%
    14:00 +1°C° 0,8 mm 4 m/S 729 mmHg 99%
    15:00 +1°C° 0,8 mm 4 m/S 729 mmHg 99%
    16:00 +2°C° 0,8 mm 3 m/S 729 mmHg 99%
    17:00 +2°C° 1 mm 3 m/S 729 mmHg 99%
    18:00 +2°C° 1 mm 3 m/S 729 mmHg 98%
    19:00 +2°C° 1 mm 3 m/S 729 mmHg 98%
    20:00 +2°C° 1,3 mm 3 m/S 729 mmHg 98%
    21:00 +3°C° 1,3 mm 2 m/S 729 mmHg 98%
    22:00 +3°C° 1,3 mm 2 m/S 729 mmHg 98%
    23:00 +3°C° 1,1 mm 2 m/S 729 mmHg 98%

    22 Dezember, Freitag

    Zeit Temperatur Niederschläge Wind Luftdruck Luftfeuchtigkeit
    00:00 +2°C° 1,1 mm 3 m/S 729 mmHg 98%
    01:00 +2°C° 1,1 mm 3 m/S 728 mmHg 98%
    02:00 +2°C° 0,3 mm 3 m/S 728 mmHg 98%
    03:00 +2°C° 0,3 mm 3 m/S 728 mmHg 98%
    04:00 +2°C° 0,3 mm 3 m/S 729 mmHg 98%
    05:00 +1°C° 0 mm 3 m/S 729 mmHg 98%
    06:00 +1°C° 0 mm 3 m/S 729 mmHg 98%
    07:00 +1°C° 0 mm 3 m/S 729 mmHg 97%
    08:00 0°C° 0 mm 4 m/S 729 mmHg 97%
    09:00 0°C° 0 mm 4 m/S 729 mmHg 96%
    10:00 0°C° 0 mm 4 m/S 730 mmHg 95%
    11:00 0°C° 0 mm 4 m/S 730 mmHg 94%
    12:00 +1°C° 0 mm 4 m/S 729 mmHg 92%
    13:00 +1°C° 0 mm 5 m/S 729 mmHg 90%
    14:00 +1°C° 0 mm 5 m/S 729 mmHg 90%
    15:00 +1°C° 0 mm 5 m/S 729 mmHg 90%
    16:00 +1°C° 0 mm 5 m/S 728 mmHg 90%
    17:00 0°C° 0,1 mm 5 m/S 728 mmHg 89%
    18:00 0°C° 0,1 mm 5 m/S 728 mmHg 89%
    19:00 0°C° 0,1 mm 5 m/S 728 mmHg 89%
    20:00 0°C° 0,1 mm 5 m/S 728 mmHg 89%
    21:00 0°C° 0,1 mm 5 m/S 728 mmHg 88%
    22:00 -2°C° 0,1 mm 6 m/S 728 mmHg 88%
    23:00 -2°C° 0,1 mm 6 m/S 728 mmHg 88%
    Mehr zeigen

    XHprof extension not loaded